When you browse on this site, cookies collect data to enhance your experience and personalize the content and advertising you see.
Visit our Privacy Policy to learn more. By continuing to use the site, you agree to this use of cookies and data.

Stündliche Wetter Sherpur

Heute, 14 Juli, Dienstag

Zeit Temperatur Niederschläge Wind Luftdruck Luftfeuchtigkeit
00:00 +20°C° 0.3 mm 1 m/S 607 mmHg 65%
01:00 +20°C° 0.3 mm 1 m/S 607 mmHg 65%
02:00 +20°C° 0.3 mm 1 m/S 607 mmHg 65%
03:00 +20°C° 0.1 mm 1 m/S 607 mmHg 65%
04:00 +20°C° 0.1 mm 1 m/S 607 mmHg 65%
05:00 +20°C° 0 mm 1 m/S 607 mmHg 65%
06:00 +21°C° 0.1 mm 1 m/S 607 mmHg 60%
07:00 +22°C° 0.1 mm 1 m/S 608 mmHg 54%
08:00 +23°C° 0.1 mm 1 m/S 608 mmHg 48%
09:00 +25°C° 0 mm 1 m/S 609 mmHg 44%
10:00 +26°C° 0 mm 1 m/S 609 mmHg 40%
11:00 +27°C° 0 mm 1 m/S 609 mmHg 37%
12:00 +28°C° 0.1 mm 1 m/S 609 mmHg 34%
13:00 +29°C° 0.1 mm 2 m/S 609 mmHg 31%
14:00 +30°C° 0.1 mm 2 m/S 609 mmHg 29%
15:00 +30°C° 0.1 mm 2 m/S 609 mmHg 31%
16:00 +29°C° 0.1 mm 2 m/S 609 mmHg 32%
17:00 +28°C° 0 mm 2 m/S 608 mmHg 34%
18:00 +28°C° 0.1 mm 2 m/S 609 mmHg 36%
19:00 +27°C° 0.1 mm 2 m/S 609 mmHg 38%
20:00 +27°C° 0.1 mm 2 m/S 609 mmHg 41%
21:00 +26°C° 0 mm 2 m/S 609 mmHg 42%
22:00 +26°C° 0 mm 2 m/S 609 mmHg 43%
23:00 +25°C° 0 mm 2 m/S 609 mmHg 45%

Morgen, 15 Juli, Mittwoch

Zeit Temperatur Niederschläge Wind Luftdruck Luftfeuchtigkeit
00:00 +25°C° 0 mm 1 m/S 609 mmHg 46%
01:00 +24°C° 0 mm 1 m/S 609 mmHg 48%
02:00 +22°C° 0 mm 0 m/S 608 mmHg 50%
03:00 +21°C° 0 mm 0 m/S 608 mmHg 51%
04:00 +21°C° 0 mm 0 m/S 608 mmHg 51%
05:00 +20°C° 0 mm 0 m/S 608 mmHg 52%
06:00 +22°C° 0 mm 0 m/S 609 mmHg 47%
07:00 +23°C° 0 mm 0 m/S 609 mmHg 42%
08:00 +24°C° 0 mm 0 m/S 610 mmHg 37%
09:00 +27°C° 0 mm 1 m/S 610 mmHg 34%
10:00 +29°C° 0 mm 1 m/S 610 mmHg 31%
11:00 +30°C° 0 mm 1 m/S 611 mmHg 28%
12:00 +30°C° 0.3 mm 3 m/S 610 mmHg 31%
13:00 +30°C° 0.3 mm 5 m/S 610 mmHg 33%
14:00 +29°C° 0.3 mm 7 m/S 610 mmHg 36%
15:00 +29°C° 0.4 mm 6 m/S 609 mmHg 36%
16:00 +28°C° 0.4 mm 5 m/S 609 mmHg 37%
17:00 +27°C° 0.4 mm 4 m/S 609 mmHg 37%
18:00 +27°C° 0.1 mm 3 m/S 609 mmHg 38%
19:00 +27°C° 0.1 mm 2 m/S 609 mmHg 38%
20:00 +26°C° 0.1 mm 1 m/S 609 mmHg 38%
21:00 +26°C° 0 mm 1 m/S 610 mmHg 40%
22:00 +26°C° 0 mm 1 m/S 610 mmHg 42%
23:00 +26°C° 0 mm 1 m/S 610 mmHg 44%

übermorgen, 16 Juli, Donnerstag

Zeit Temperatur Niederschläge Wind Luftdruck Luftfeuchtigkeit
00:00 +25°C° 0 mm 1 m/S 610 mmHg 45%
01:00 +25°C° 0 mm 1 m/S 609 mmHg 46%
02:00 +24°C° 0 mm 1 m/S 609 mmHg 46%
03:00 +24°C° 0 mm 1 m/S 608 mmHg 48%
04:00 +21°C° 0 mm 0 m/S 608 mmHg 50%
05:00 +20°C° 0 mm 0 m/S 608 mmHg 52%
06:00 +22°C° 0 mm 0 m/S 608 mmHg 48%
07:00 +23°C° 0 mm 0 m/S 609 mmHg 44%
08:00 +24°C° 0 mm 0 m/S 609 mmHg 39%
09:00 +27°C° 0.1 mm 1 m/S 609 mmHg 36%
10:00 +28°C° 0.1 mm 1 m/S 609 mmHg 33%
11:00 +29°C° 0.1 mm 2 m/S 610 mmHg 30%
12:00 +30°C° 0.2 mm 2 m/S 610 mmHg 30%
13:00 +30°C° 0.2 mm 3 m/S 610 mmHg 30%
14:00 +31°C° 0.2 mm 3 m/S 609 mmHg 30%
15:00 +28°C° 1.2 mm 4 m/S 608 mmHg 39%
16:00 +25°C° 1.2 mm 5 m/S 607 mmHg 48%
17:00 +22°C° 1.2 mm 6 m/S 606 mmHg 57%
18:00 +22°C° 0.1 mm 5 m/S 607 mmHg 55%
19:00 +22°C° 0.1 mm 3 m/S 607 mmHg 53%
20:00 +23°C° 0.1 mm 2 m/S 608 mmHg 52%
21:00 +23°C° 0 mm 2 m/S 608 mmHg 52%
22:00 +23°C° 0 mm 1 m/S 608 mmHg 52%
23:00 +23°C° 0 mm 1 m/S 608 mmHg 52%

17 Juli, Freitag

Zeit Temperatur Niederschläge Wind Luftdruck Luftfeuchtigkeit
00:00 +23°C° 0 mm 1 m/S 608 mmHg 53%
01:00 +23°C° 0 mm 1 m/S 608 mmHg 53%
02:00 +20°C° 0 mm 0 m/S 608 mmHg 54%
03:00 +20°C° 0 mm 0 m/S 608 mmHg 54%
04:00 +20°C° 0 mm 0 m/S 607 mmHg 55%
05:00 +19°C° 0 mm 0 m/S 607 mmHg 55%
06:00 +21°C° 0 mm 0 m/S 608 mmHg 50%
07:00 +22°C° 0 mm 0 m/S 609 mmHg 44%
08:00 +24°C° 0 mm 0 m/S 609 mmHg 39%
09:00 +27°C° 0 mm 1 m/S 610 mmHg 36%
10:00 +28°C° 0 mm 1 m/S 610 mmHg 32%
11:00 +29°C° 0 mm 1 m/S 610 mmHg 29%
12:00 +30°C° 0 mm 1 m/S 610 mmHg 28%
13:00 +31°C° 0 mm 2 m/S 610 mmHg 26%
14:00 +32°C° 0 mm 2 m/S 610 mmHg 25%
15:00 +33°C° 0 mm 3 m/S 610 mmHg 25%
16:00 +33°C° 0 mm 3 m/S 610 mmHg 25%
17:00 +33°C° 0 mm 4 m/S 610 mmHg 25%
18:00 +31°C° 0 mm 3 m/S 610 mmHg 27%
19:00 +30°C° 0 mm 2 m/S 610 mmHg 30%
20:00 +29°C° 0 mm 1 m/S 610 mmHg 32%
21:00 +28°C° 0 mm 1 m/S 610 mmHg 33%
22:00 +28°C° 0 mm 1 m/S 610 mmHg 34%
23:00 +27°C° 0 mm 1 m/S 610 mmHg 36%

18 Juli, Samstag

Zeit Temperatur Niederschläge Wind Luftdruck Luftfeuchtigkeit
00:00 +26°C° 0 mm 1 m/S 609 mmHg 36%
01:00 +26°C° 0 mm 1 m/S 609 mmHg 36%
02:00 +25°C° 0 mm 1 m/S 609 mmHg 37%
03:00 +24°C° 0 mm 1 m/S 609 mmHg 37%
04:00 +24°C° 0 mm 1 m/S 608 mmHg 36%
05:00 +24°C° 0 mm 1 m/S 608 mmHg 36%
06:00 +25°C° 0 mm 1 m/S 609 mmHg 33%
07:00 +26°C° 0 mm 1 m/S 610 mmHg 30%
08:00 +25°C° 0 mm 0 m/S 610 mmHg 26%
09:00 +29°C° 0 mm 1 m/S 611 mmHg 25%
10:00 +30°C° 0 mm 1 m/S 611 mmHg 23%
11:00 +31°C° 0 mm 1 m/S 611 mmHg 21%
12:00 +32°C° 0 mm 1 m/S 611 mmHg 20%
13:00 +34°C° 0 mm 2 m/S 611 mmHg 19%
14:00 +35°C° 0 mm 2 m/S 611 mmHg 18%
15:00 +35°C° 0 mm 3 m/S 611 mmHg 18%
16:00 +35°C° 0 mm 3 m/S 611 mmHg 17%
17:00 +35°C° 0 mm 4 m/S 610 mmHg 17%
18:00 +34°C° 0 mm 4 m/S 610 mmHg 19%
19:00 +32°C° 0 mm 4 m/S 610 mmHg 20%
20:00 +30°C° 0 mm 4 m/S 610 mmHg 21%
21:00 +29°C° 0 mm 3 m/S 610 mmHg 23%
22:00 +28°C° 0 mm 2 m/S 609 mmHg 24%
23:00 +27°C° 0 mm 2 m/S 609 mmHg 26%

19 Juli, Sonntag

Zeit Temperatur Niederschläge Wind Luftdruck Luftfeuchtigkeit
00:00 +26°C° 0 mm 2 m/S 609 mmHg 27%
01:00 +26°C° 0 mm 1 m/S 609 mmHg 28%
02:00 +25°C° 0 mm 1 m/S 608 mmHg 29%
03:00 +25°C° 0 mm 1 m/S 608 mmHg 29%
04:00 +24°C° 0 mm 1 m/S 608 mmHg 29%
05:00 +24°C° 0 mm 2 m/S 608 mmHg 30%
06:00 +25°C° 0 mm 2 m/S 608 mmHg 27%
07:00 +26°C° 0 mm 1 m/S 609 mmHg 25%
08:00 +27°C° 0 mm 1 m/S 609 mmHg 22%
09:00 +28°C° 0 mm 2 m/S 610 mmHg 20%
10:00 +30°C° 0 mm 3 m/S 610 mmHg 19%
11:00 +31°C° 0 mm 3 m/S 610 mmHg 17%
12:00 +33°C° 0 mm 4 m/S 610 mmHg 15%
13:00 +34°C° 0 mm 5 m/S 610 mmHg 14%
14:00 +35°C° 0 mm 6 m/S 610 mmHg 13%
15:00 +35°C° 0 mm 7 m/S 609 mmHg 13%
16:00 +34°C° 0 mm 8 m/S 609 mmHg 13%
17:00 +34°C° 0 mm 9 m/S 608 mmHg 13%
18:00 +33°C° 0 mm 8 m/S 608 mmHg 15%
19:00 +30°C° 0 mm 6 m/S 608 mmHg 17%
20:00 +28°C° 0 mm 5 m/S 607 mmHg 19%
21:00 +28°C° 0 mm 5 m/S 607 mmHg 20%
22:00 +27°C° 0 mm 5 m/S 607 mmHg 21%
23:00 +26°C° 0 mm 4 m/S 607 mmHg 23%
Mehr zeigen